Regional Weather Roundup
Issued by NWS

Home | Current Version | Previous Version | Text Only | Print | Product List | Glossary On
Versions: 1 2 3 4 5 6 7 8 9 10 11 12 13 14 15 16 17 18 19 20 21 22 23 24 25 26 27 28 29 30 31 32 33 34 35 36 37 38 39 40 41 42 43 44 45 46 47 48 49 50
000
ASUS43 KTOP 181659
RWRKS

WEATHER ROUNDUP FOR KANSAS
NATIONAL WEATHER SERVICE GOODLAND KS
1100 AM CST SAT NOV 18 2017

NOTE:  "FAIR" INDICATES FEW OR NO CLOUDS BELOW 12,000 FEET WITH NO
SIGNIFICANT WEATHER AND/OR OBSTRUCTIONS TO VISIBILITY.

KSZ001>006-013>018-027>032-041>047-181800-
NORTHWEST KANSAS

CITY           SKY/WX    TMP DP  RH WIND       PRES   REMARKS
GOODLAND       SUNNY     42  22  44 N28G37    30.22R
HAYS           SUNNY     48  33  56 NW29G37   30.14R
HILL CITY      SUNNY     47  33  58 N25G37    30.18R
RUSSELL        LGT RAIN  48  40  73 NW28G36   30.12R
$$

KSZ061>065-074>080-084>089-181800-
SOUTHWEST KANSAS

CITY           SKY/WX    TMP DP  RH WIND       PRES   REMARKS
DODGE CITY     SUNNY     47  30  51 N30G44    30.17R
GARDEN CITY    SUNNY     47  25  42 N31G41    30.22R
GREAT BEND     PTSUNNY   46  38  73 NW23G33   30.13R
LIBERAL        SUNNY     49  21  33 N31G41    30.21R
$$

KSZ066>073-081>083-090>101-181800-
SOUTHEAST KANSAS

CITY           SKY/WX    TMP DP  RH WIND       PRES   REMARKS
CHANUTE        LGT RAIN  46  40  79 NW17G31   29.94R
COFFEYVILLE    LGT RAIN  46  40  79 NW23G33   29.97R
HUTCHINSON     CLOUDY    44  39  82 NW18      30.09R
MEDICINE LODGE   N/A     46  37  71 N21G31    30.14R
NEWTON         LGT RAIN  42  37  82 NW24G32   30.07R
PARSONS        CLOUDY    47  40  76 N17G30    29.96R
WICHITA INTL   LGT RAIN  44  38  79 N23G38    30.09R
WICHITA JABRA  LGT RAIN  43  36  76 NW26G37   30.07R
WICHITA MCCONL LGT RAIN  44  36  74 N22G36    30.06R
WINFIELD       CLOUDY    47  37  68 N28G38    30.07R
$$

KSZ007>012-019>026-033>040-048>060-102>105-181800-
NORTHEAST KANSAS

CITY           SKY/WX    TMP DP  RH WIND       PRES   REMARKS
CONCORDIA      CLOUDY    47  39  74 NW21G32   30.05R
EMPORIA        CLOUDY    45  31  58 NW22G37   29.99R
LAWRENCE       CLOUDY    45  37  73 NW18G26   29.92R
MANHATTAN      CLOUDY    47  34  60 NW13G22   30.02R
OLATHE IND     CLOUDY    43  40  89 NW18G26   29.89R
OLATHE EXE     CLOUDY    42  38  85 NW20G32   29.86R
SALINA         PTSUNNY   49  39  68 NW24      30.07R
TOPEKA BILLARD CLOUDY    45  33  63 NW22G30   29.94R
TOPEKA FORBES  CLOUDY    46  33  60 NW23G33   29.94R
$$



USA.gov is the U.S. government's official web portal to all federal, state and local government web resources and services.